DW4805 Weather Reports


time (UTC)temp
F
wind
direction
speed
knots
gust
knots
rain 1hr
in
rain 24hr
in
rain mn
in
humidity
%
barometer
mb
20260506091550 58 290 6.1 11.3 0.00 0.00 0.00 76 1010.9
20260506090056 58 298 5.2 9.6 0.00 0.00 0.00 76 1011.0
20260506084612 58 289 4.3 12.2 0.00 0.00 0.00 76 1010.8
20260506083056 59 305 2.6 11.3 0.00 0.00 0.00 77 1010.6
20260506081551 59 292 5.2 9.6 0.00 0.00 0.00 77 1010.5
20260506073059 60 286 3.5 7.8 0.00 0.00 0.00 77 1010.1
20260506071553 60 284 1.7 7.8 0.00 0.00 0.00 78 1010.2
20260506061601 61 292 3.5 8.7 0.00 0.00 0.00 77 1010.1
20260506050109 63 315 7.8 13.0 0.00 0.00 0.00 75 1010.3
20260506044555 64 299 4.3 8.7 0.00 0.00 0.00 75 1010.0
20260506043105 65 319 6.1 10.4 0.00 0.00 0.00 74 1009.8
20260506041600 66 317 6.1 12.2 0.00 0.00 0.00 72 1010.0
20260506040105 66 281 2.6 12.2 0.00 0.00 0.00 72 1009.9
20260506034605 67 302 6.1 12.2 0.00 0.00 0.00 71 1009.6
20260506033103 67 282 6.1 11.3 0.00 0.00 0.00 70 1009.3
20260506031559 68 337 5.2 9.6 0.00 0.00 0.00 70 1008.8
20260506030056 68 323 6.1 10.4 0.00 0.00 0.00 69 1008.3
20260506024557 69 325 5.2 13.0 0.00 0.00 0.00 69 1008.3
20260506023051 70 281 4.3 12.2 0.00 0.00 0.00 69 1007.9
20260506021602 70 317 7.0 14.8 0.00 0.00 0.00 68 1007.9
20260506020050 71 290 6.1 10.4 0.00 0.00 0.00 67 1007.4
20260506014553 72 286 6.1 13.0 0.00 0.00 0.00 66 1006.9
20260506013103 72 292 4.3 7.8 0.00 0.00 0.00 66 1006.6
20260506011603 73 324 4.3 8.7 0.00 0.00 0.00 65 1006.1
20260506010053 74 300 3.5 8.7 0.00 0.00 0.00 65 1005.9
20260506004555 74 285 6.1 13.9 0.00 0.00 0.00 63 1005.8
20260506003055 75 306 4.3 10.4 0.00 0.00 0.00 60 1005.4
20260506001555 76 290 2.6 10.4 0.00 0.00 0.00 61 1005.6
20260506000054 77 294 3.5 8.7 0.00 0.00 0.00 60 1005.6
20260505234605 78 286 5.2 12.2 0.00 0.00 0.00 60 1005.3
20260505233051 79 286 5.2 11.3 0.00 0.00 0.00 60 1004.9
20260505231606 81 315 7.0 12.2 0.00 0.00 0.00 59 1004.7
20260505230054 83 321 3.5 11.3 0.00 0.00 0.00 51 1004.5
20260505224556 84 290 5.2 12.2 0.00 0.00 0.00 49 1004.4
20260505223104 87 313 4.3 7.8 0.00 0.00 0.00 49 1004.2
20260505221600 87 282 1.7 3.5 0.00 0.00 0.00 51 1004.0
20260505220056 87 296 0.9 3.5 0.00 0.00 0.00 52 1003.8
20260505214616 88 295 0.9 2.6 0.00 0.00 0.00 49 1004.0
20260505213102 89 286 0.0 1.7 0.00 0.00 0.00 48 1004.0
20260505211603 90 318 0.0 2.6 0.00 0.00 0.00 47 1004.0
20260505210052 90 173 2.6 6.1 0.00 0.00 0.00 45 1004.3
20260505204551 90 149 1.7 6.1 0.00 0.00 0.00 47 1004.6
20260505203054 90 141 1.7 7.0 0.00 0.00 0.00 46 1004.6
20260505201557 91 283 0.9 6.1 0.00 0.00 0.00 47 1004.9
20260505200059 89 154 1.7 6.1 0.00 0.00 0.00 50 1005.0
20260505194557 90 175 2.6 9.6 0.00 0.00 0.00 50 1005.0
20260505193054 89 175 3.5 10.4 0.00 0.00 0.00 52 1005.1
20260505191552 89 134 4.3 8.7 0.00 0.00 0.00 55 1005.0
20260505190054 87 125 4.3 10.4 0.00 0.00 0.00 58 1005.0
20260505184553 87 245 4.3 11.3 0.00 0.00 0.00 56 1005.1
20260505183105 86 184 4.3 15.6 0.00 0.00 0.00 58 1005.2
20260505181552 85 186 3.5 13.9 0.00 0.00 0.00 62 1005.4
20260505180056 84 150 6.1 13.0 0.00 0.00 0.00 67 1005.5
20260505174559 82 129 5.2 15.6 0.00 0.00 0.00 67 1005.6
20260505173050 81 119 6.1 12.2 0.00 0.00 0.00 69 1005.5
20260505171553 80 150 6.1 11.3 0.00 0.00 0.00 70 1005.7
20260505170055 80 143 6.1 12.2 0.00 0.00 0.00 70 1005.6
20260505164555 79 180 5.2 12.2 0.00 0.00 0.00 71 1005.6
20260505163050 80 153 7.0 16.5 0.00 0.00 0.00 72 1005.4
20260505161600 79 147 6.1 14.8 0.00 0.00 0.00 72 1005.3
20260505153102 76 149 6.1 14.8 0.00 0.00 0.00 77 1005.1
20260505151604 75 177 5.2 15.6 0.00 0.00 0.00 79 1005.2
20260505140110 72 222 6.1 16.5 0.00 0.00 0.00 82 1005.2
20260505130111 71 152 6.1 12.2 0.00 0.00 0.00 85 1005.0
20260505124614 70 146 5.2 12.2 0.00 0.00 0.00 86 1005.0
20260505123117 69 149 4.3 11.3 0.00 0.00 0.00 86 1004.9
20260505121559 69 152 2.6 10.4 0.00 0.00 0.00 86 1004.7
20260505120058 70 115 5.2 13.0 0.00 0.00 0.00 86 1004.6
20260505114602 69 119 6.1 10.4 0.00 0.00 0.00 86 1004.3
20260505113115 69 173 5.2 12.2 0.00 0.00 0.00 86 1004.4
20260505111605 69 154 6.1 10.4 0.00 0.00 0.00 86 1004.1
20260505101555 69 157 7.0 17.4 0.00 0.00 0.00 87 1003.9
20260505100059 69 205 6.1 13.9 0.00 0.00 0.00 87 1004.2
20260505094556 68 119 5.2 10.4 0.00 0.00 0.00 87 1004.3
20260505093059 69 141 5.2 13.0 0.00 0.00 0.00 87 1004.5